Time,TemperatureF,DewpointF,PressureIn,WindDirection,WindDirectionDegrees,WindSpeedMPH,WindSpeedGustMPH,Humidity,HourlyPrecipIn,Conditions,Clouds,dailyrainin,SolarRadiationWatts/m^2,SoftwareType,DateUTC
2013-05-15 00:12:00,51.1,46.0,29.99,ESE,117,0.0,3.0,82,0.00,,,0.00,0,weatherlink.com 1.10,2013-05-15 07:12:00,
2013-05-15 00:27:00,50.9,46.0,29.99,ESE,109,0.0,3.0,83,0.00,,,0.00,0,weatherlink.com 1.10,2013-05-15 07:27:00,
2013-05-15 00:42:00,50.7,46.0,29.99,East,98,0.0,2.0,84,0.00,,,0.00,0,weatherlink.com 1.10,2013-05-15 07:42:00,
2013-05-15 00:57:00,50.5,46.0,29.99,SW,235,0.0,5.0,84,0.00,,,0.00,0,weatherlink.com 1.10,2013-05-15 07:57:00,
2013-05-15 01:12:00,50.4,46.0,29.99,WSW,250,0.0,3.0,85,0.00,,,0.00,0,weatherlink.com 1.10,2013-05-15 08:12:00,
2013-05-15 01:27:00,50.2,46.0,29.98,NNE,32,0.0,1.0,85,0.00,,,0.00,0,weatherlink.com 1.10,2013-05-15 08:27:00,
2013-05-15 01:42:00,50.1,46.0,29.98,NNE,17,0.0,5.0,86,0.00,,,0.00,0,weatherlink.com 1.10,2013-05-15 08:42:00,
2013-05-15 01:58:00,49.9,46.0,29.98,NE,36,0.0,1.0,87,0.00,,,0.00,0,weatherlink.com 1.10,2013-05-15 08:58:00,
2013-05-15 02:13:00,49.7,46.0,29.98,NE,41,0.0,1.0,87,0.00,,,0.00,0,weatherlink.com 1.10,2013-05-15 09:13:00,
2013-05-15 02:28:00,49.5,46.0,29.98,NE,41,0.0,0.0,87,0.00,,,0.00,0,weatherlink.com 1.10,2013-05-15 09:28:00,
2013-05-15 02:43:00,49.2,46.0,29.98,NNE,17,0.0,1.0,87,0.00,,,0.00,0,weatherlink.com 1.10,2013-05-15 09:43:00,
2013-05-15 02:58:00,49.1,46.0,29.98,West,278,3.0,3.0,88,0.00,,,0.00,0,weatherlink.com 1.10,2013-05-15 09:58:00,
2013-05-15 03:13:00,49.1,46.0,29.98,North,5,0.0,3.0,89,0.00,,,0.00,0,weatherlink.com 1.10,2013-05-15 10:13:00,
2013-05-15 03:28:00,49.1,46.0,29.98,ENE,69,0.0,2.0,89,0.00,,,0.00,0,weatherlink.com 1.10,2013-05-15 10:28:00,
2013-05-15 03:43:00,49.0,46.0,29.98,ENE,69,0.0,1.0,89,0.00,,,0.00,0,weatherlink.com 1.10,2013-05-15 10:43:00,
2013-05-15 03:58:00,48.9,46.0,29.98,ENE,69,0.0,1.0,88,0.00,,,0.00,0,weatherlink.com 1.10,2013-05-15 10:58:00,
2013-05-15 04:13:00,48.7,45.0,29.98,ENE,69,0.0,1.0,88,0.00,,,0.00,0,weatherlink.com 1.10,2013-05-15 11:13:00,
2013-05-15 04:28:00,48.5,46.0,29.99,ENE,73,0.0,3.0,89,0.00,,,0.00,0,weatherlink.com 1.10,2013-05-15 11:28:00,
2013-05-15 04:43:00,48.5,46.0,29.98,ENE,76,0.0,1.0,89,0.00,,,0.00,0,weatherlink.com 1.10,2013-05-15 11:43:00,
2013-05-15 04:58:00,48.3,45.0,29.99,ENE,63,0.0,1.0,89,0.00,,,0.00,0,weatherlink.com 1.10,2013-05-15 11:58:00,
2013-05-15 05:13:00,48.1,45.0,29.99,ENE,63,0.0,0.0,89,0.00,,,0.00,0,weatherlink.com 1.10,2013-05-15 12:13:00,
2013-05-15 05:28:00,47.9,45.0,29.98,ENE,63,0.0,1.0,90,0.00,,,0.00,0,weatherlink.com 1.10,2013-05-15 12:28:00,
2013-05-15 05:43:00,47.9,46.0,29.99,ENE,63,0.0,2.0,91,0.00,,,0.00,0,weatherlink.com 1.10,2013-05-15 12:43:00,
2013-05-15 05:58:00,47.8,45.0,29.99,ENE,63,0.0,1.0,91,0.00,,,0.00,0,weatherlink.com 1.10,2013-05-15 12:58:00,
2013-05-15 06:13:00,47.9,46.0,30.00,ENE,61,0.0,0.0,91,0.00,,,0.00,11,weatherlink.com 1.10,2013-05-15 13:13:00,
2013-05-15 06:28:00,47.9,46.0,30.00,ESE,108,0.0,1.0,91,0.00,,,0.00,23,weatherlink.com 1.10,2013-05-15 13:28:00,
2013-05-15 06:58:00,48.4,46.0,30.02,ESE,108,0.0,1.0,92,0.00,,,0.00,42,weatherlink.com 1.10,2013-05-15 13:58:00,
2013-05-15 07:13:00,48.9,47.0,30.01,ESE,108,0.0,0.0,92,0.00,,,0.00,172,weatherlink.com 1.10,2013-05-15 14:13:00,
2013-05-15 07:28:00,50.4,48.0,30.01,East,87,0.0,2.0,92,0.00,,,0.00,234,weatherlink.com 1.10,2013-05-15 14:28:00,
2013-05-15 07:43:00,52.5,50.0,30.02,NNW,348,0.0,2.0,90,0.00,,,0.00,294,weatherlink.com 1.10,2013-05-15 14:43:00,
2013-05-15 07:49:00,53.2,49.4,30.01,ENE,77,0.0,3.0,87,0.00,,,0.00,308,Wunderground v.1.15,2013-05-15 14:49:00,
2013-05-15 07:55:00,54.1,49.7,30.01,ENE,63,0.0,3.0,85,0.00,,,0.00,330,Wunderground v.1.15,2013-05-15 14:55:00,
2013-05-15 08:01:00,54.9,49.8,30.02,ENE,63,0.0,6.0,83,0.00,,,0.00,353,Wunderground v.1.15,2013-05-15 15:01:00,
2013-05-15 08:07:00,55.7,50.3,30.02,West,281,0.0,6.0,82,0.00,,,0.00,364,Wunderground v.1.15,2013-05-15 15:07:00,
2013-05-15 08:12:00,56.4,50.0,30.02,West,281,0.0,1.0,79,0.00,,,0.00,385,Wunderground v.1.15,2013-05-15 15:12:00,
2013-05-15 08:18:00,57.1,50.3,30.02,West,281,0.0,1.0,78,0.00,,,0.00,411,Wunderground v.1.15,2013-05-15 15:18:00,
2013-05-15 08:23:00,57.6,50.1,30.02,West,281,0.0,1.0,76,0.00,,,0.00,432,Wunderground v.1.15,2013-05-15 15:23:00,
2013-05-15 08:29:00,58.2,50.0,30.02,West,263,3.0,3.0,75,0.00,,,0.00,457,weatherlink.com 1.10,2013-05-15 15:29:00,
2013-05-15 08:38:00,58.6,50.0,30.01,West,274,1.0,1.0,73,0.00,,,0.00,473,Wunderground v.1.15,2013-05-15 15:38:00,
2013-05-15 08:43:00,59.1,50.0,30.02,WNW,290,0.0,2.0,73,0.00,,,0.00,448,weatherlink.com 1.10,2013-05-15 15:43:00,
2013-05-15 08:58:00,60.5,50.0,30.02,ENE,69,3.0,3.0,68,0.00,,,0.00,568,weatherlink.com 1.10,2013-05-15 15:58:00,
2013-05-15 09:14:00,61.3,50.0,30.02,West,277,2.0,3.0,66,0.00,,,0.00,610,weatherlink.com 1.10,2013-05-15 16:14:00,
2013-05-15 09:29:00,61.7,50.0,30.02,WNW,296,0.0,4.0,65,0.00,,,0.00,650,weatherlink.com 1.10,2013-05-15 16:29:00,
2013-05-15 09:44:00,62.6,50.0,30.03,WNW,284,0.0,3.0,63,0.00,,,0.00,677,weatherlink.com 1.10,2013-05-15 16:44:00,
2013-05-15 10:44:00,65.9,50.0,30.03,NNW,348,1.0,4.0,57,0.00,,,0.00,817,weatherlink.com 1.10,2013-05-15 17:44:00,
2013-05-15 10:59:00,66.5,50.0,30.03,ENE,61,1.0,6.0,56,0.00,,,0.00,856,weatherlink.com 1.10,2013-05-15 17:59:00,
2013-05-15 11:14:00,65.8,50.0,30.04,WSW,251,0.0,3.0,57,0.00,,,0.00,865,weatherlink.com 1.10,2013-05-15 18:14:00,
2013-05-15 11:29:00,67.1,50.0,30.04,NNE,23,2.0,3.0,55,0.00,,,0.00,909,weatherlink.com 1.10,2013-05-15 18:29:00,
2013-05-15 11:44:00,66.6,51.0,30.03,West,274,1.0,5.0,58,0.00,,,0.00,911,weatherlink.com 1.10,2013-05-15 18:44:00,
2013-05-15 11:59:00,66.8,50.0,30.04,West,274,1.0,3.0,56,0.00,,,0.00,907,weatherlink.com 1.10,2013-05-15 18:59:00,
2013-05-15 12:14:00,67.4,51.0,30.03,WNW,290,1.0,3.0,56,0.00,,,0.00,951,weatherlink.com 1.10,2013-05-15 19:14:00,
2013-05-15 12:29:00,68.7,50.0,30.03,NE,47,1.0,5.0,52,0.00,,,0.00,921,weatherlink.com 1.10,2013-05-15 19:29:00,
2013-05-15 12:44:00,69.3,51.0,30.03,ENE,61,1.0,3.0,52,0.00,,,0.00,838,weatherlink.com 1.10,2013-05-15 19:44:00,
2013-05-15 12:59:00,68.2,51.0,30.03,NE,42,0.0,3.0,54,0.00,,,0.00,751,weatherlink.com 1.10,2013-05-15 19:59:00,
2013-05-15 13:14:00,67.4,50.0,30.03,NNW,334,2.0,3.0,54,0.00,,,0.00,701,weatherlink.com 1.10,2013-05-15 20:14:00,
2013-05-15 13:29:00,68.3,51.0,30.03,NE,46,2.0,4.0,54,0.00,,,0.00,410,weatherlink.com 1.10,2013-05-15 20:29:00,
2013-05-15 13:59:00,67.8,50.0,30.03,ENE,70,0.0,3.0,53,0.00,,,0.00,272,weatherlink.com 1.10,2013-05-15 20:59:00,
2013-05-15 14:29:00,66.9,50.0,30.03,WNW,293,1.0,4.0,54,0.00,,,0.00,292,weatherlink.com 1.10,2013-05-15 21:29:00,
2013-05-15 14:59:00,65.9,50.0,30.03,NE,45,0.0,3.0,57,0.00,,,0.00,181,weatherlink.com 1.10,2013-05-15 21:59:00,
2013-05-15 15:14:00,65.6,50.0,30.03,NNW,330,0.0,4.0,58,0.00,,,0.00,156,weatherlink.com 1.10,2013-05-15 22:14:00,
2013-05-15 15:29:00,65.1,50.0,30.02,NW,311,0.0,4.0,58,0.00,,,0.00,109,weatherlink.com 1.10,2013-05-15 22:29:00,
2013-05-15 15:44:00,64.8,50.0,30.02,North,11,1.0,3.0,60,0.00,,,0.00,67,weatherlink.com 1.10,2013-05-15 22:44:00,
2013-05-15 16:14:00,64.9,51.0,30.01,NW,308,0.0,3.0,60,0.00,,,0.00,69,weatherlink.com 1.10,2013-05-15 23:14:00,
2013-05-15 16:44:00,65.3,50.0,30.01,WNW,293,2.0,3.0,59,0.00,,,0.00,81,weatherlink.com 1.10,2013-05-15 23:44:00,
2013-05-15 16:59:00,65.6,50.0,30.00,West,259,1.0,4.0,58,0.00,,,0.00,93,weatherlink.com 1.10,2013-05-15 23:59:00,
2013-05-15 17:14:00,65.8,50.0,30.00,West,269,2.0,5.0,58,0.00,,,0.00,79,weatherlink.com 1.10,2013-05-16 00:14:00,
2013-05-15 17:29:00,65.6,51.0,30.00,West,277,0.0,5.0,60,0.00,,,0.00,40,weatherlink.com 1.10,2013-05-16 00:29:00,
2013-05-15 17:44:00,65.2,51.0,30.00,NNE,23,0.0,4.0,60,0.00,,,0.00,32,weatherlink.com 1.10,2013-05-16 00:44:00,
2013-05-15 17:59:00,64.9,51.0,30.00,NE,36,0.0,3.0,61,0.00,,,0.00,33,weatherlink.com 1.10,2013-05-16 00:59:00,
2013-05-15 18:14:00,64.7,51.0,30.00,West,266,2.0,2.0,61,0.00,,,0.00,28,weatherlink.com 1.10,2013-05-16 01:14:00,
2013-05-15 18:29:00,64.4,50.0,29.99,West,275,2.0,3.0,60,0.00,,,0.00,21,weatherlink.com 1.10,2013-05-16 01:29:00,
2013-05-15 18:44:00,64.3,50.0,29.99,West,275,0.0,2.0,61,0.00,,,0.00,40,weatherlink.com 1.10,2013-05-16 01:44:00,
2013-05-15 19:30:00,63.2,50.0,29.98,West,275,0.0,1.0,62,0.00,,,0.00,18,weatherlink.com 1.10,2013-05-16 02:30:00,
2013-05-15 19:45:00,62.7,49.0,29.99,West,275,0.0,0.0,62,0.00,,,0.00,9,weatherlink.com 1.10,2013-05-16 02:45:00,
2013-05-15 20:15:00,61.5,49.0,29.99,West,275,0.0,1.0,64,0.00,,,0.00,0,weatherlink.com 1.10,2013-05-16 03:15:00,
2013-05-15 20:45:00,60.0,49.0,30.00,West,273,2.0,2.0,68,0.00,,,0.00,0,weatherlink.com 1.10,2013-05-16 03:45:00,
2013-05-15 21:00:00,59.1,49.0,30.00,West,273,0.0,1.0,70,0.00,,,0.00,0,weatherlink.com 1.10,2013-05-16 04:00:00,
2013-05-15 21:15:00,58.4,49.0,30.00,West,273,0.0,1.0,72,0.00,,,0.00,0,weatherlink.com 1.10,2013-05-16 04:15:00,
2013-05-15 21:30:00,57.7,49.0,30.00,West,273,0.0,0.0,73,0.00,,,0.00,0,weatherlink.com 1.10,2013-05-16 04:30:00,
2013-05-15 21:45:00,57.0,49.0,30.00,West,273,0.0,0.0,74,0.00,,,0.00,0,weatherlink.com 1.10,2013-05-16 04:45:00,
2013-05-15 22:00:00,56.3,49.0,30.00,South,172,0.0,1.0,76,0.00,,,0.00,0,weatherlink.com 1.10,2013-05-16 05:00:00,
2013-05-15 22:15:00,55.7,49.0,30.01,NNE,27,0.0,1.0,77,0.00,,,0.00,0,weatherlink.com 1.10,2013-05-16 05:15:00,
2013-05-15 22:30:00,55.3,49.0,30.01,ENE,63,0.0,2.0,78,0.00,,,0.00,0,weatherlink.com 1.10,2013-05-16 05:30:00,
2013-05-15 22:45:00,55.0,48.0,30.01,ENE,64,0.0,0.0,78,0.00,,,0.00,0,weatherlink.com 1.10,2013-05-16 05:45:00,
2013-05-15 23:00:00,54.7,48.0,30.01,ENE,64,0.0,0.0,79,0.00,,,0.00,0,weatherlink.com 1.10,2013-05-16 06:00:00,
2013-05-15 23:15:00,54.3,48.0,30.01,ENE,63,0.0,0.0,80,0.00,,,0.00,0,weatherlink.com 1.10,2013-05-16 06:15:00,
2013-05-15 23:30:00,54.1,48.0,30.01,ENE,64,0.0,1.0,81,0.00,,,0.00,0,weatherlink.com 1.10,2013-05-16 06:30:00,
2013-05-15 23:45:00,54.0,49.0,30.01,ENE,64,0.0,1.0,82,0.00,,,0.00,0,weatherlink.com 1.10,2013-05-16 06:45:00,